Regional Weather Roundup
Issued by NWS

Home | Current Version | Previous Version | Graphics & Text | Print | Product List | Glossary On
Versions: 1 2 3 4 5 6 7 8 9 10 11 12 13 14 15 16 17 18 19 20 21 22 23 24 25 26 27
000
ASUS45 KBOU 160110
RWRCO

WEATHER ROUNDUP FOR COLORADO
NATIONAL WEATHER SERVICE DENVER/BOULDER CO
600 PM MST MON JAN 15 2018

NOTE: "FAIR" INDICATES FEW OR NO CLOUDS BELOW 12000 FEET WITH NO
SIGNIFICANT WEATHER AND/OR OBSTRUCTIONS TO VISIBILITY.

COZ001>005-013-030-031-160200-
...NORTHWEST COLORADO...

CITY           SKY/WX    TMP DP  RH WIND       PRES   REMARKS
CRAIG          FAIR      23   0  36 VRB5      30.39R WCI  17
HAYDEN         FAIR      21  11  65 SW5       30.38R WCI  15
MEEKER         FAIR      30  13  49 N14       30.36R WCI  19
RABBIT EARS PA LGT SNOW N/A N/A N/A W7        30.27S
STEAMBOAT SPGS FAIR      21  17  85 CALM      30.35R
WALDEN         FAIR      12  -8  40 NW8       30.35S WCI   1
$$

COZ006>008-011-160200-
...WEST CENTRAL VALLEYS...

CITY           SKY/WX    TMP DP  RH WIND       PRES   REMARKS
GRAND JUNCTION FAIR      40  22  48 N7        30.29R
MONTROSE       FAIR      37  21  52 VRB5      30.30R
EAGLE          CLOUDY    33  12  41 E3        30.35R
RIFLE          FAIR      36  19  50 NW12      30.33R
DELTA          FAIR      37  22  54 N5        30.27R
NUCLA          NOT AVBL
$$

COZ017>023-064>068-160200-
...SOUTHWEST COLORADO...

CITY           SKY/WX    TMP DP  RH WIND       PRES   REMARKS
DURANGO        FAIR      38  23  55 S5        30.17R
CORTEZ         FAIR      40  26  57 NW9       30.19R
PAGOSA SPRINGS FAIR      34  19  55 CALM      30.20R
TELLURIDE      FAIR      31  19  61 W3        30.27R
WOLF CREEK PAS FAIR      23  10  58 W5        30.30S WCI  17
$$

COZ009-010-012-014-032>034-037-058>063-160200-
...CENTRAL COLORADO...

CITY           SKY/WX    TMP DP  RH WIND       PRES   REMARKS
ASPEN          FAIR      30  18  60 CALM      30.26R
BUENA VISTA    FAIR      18  15  87 SE17      30.28R WCI   3
COPPER MTN     NOT AVBL
BERTHOUD PASS  CLOUDY     1  -9  60 NW26G36   30.17F WCI -23
COTTONWOOD PAS NOT AVBL
GUNNISON       FAIR      33  19  56 CALM      30.23R
KREMMLING      NOT AVBL
LEADVILLE      FAIR      18   8  65 NE10      30.25R WCI   6
MONARCH PASS   FAIR      19  10  68 W10       30.32S WCI   8
SALIDA         FAIR      18  14  82 SE20G28   30.37R WCI   2
SUNLIGHT       FAIR      18  14  86 NW5       30.33R WCI  11
WILKERSON PASS FAIR      12   7  79 NW12G22   30.23R WCI  -2
$$

COZ069>075-160200-
...SAN LUIS VALLEY/SANGRE DE CRISTO MOUNTAINS...

CITY           SKY/WX    TMP DP  RH WIND       PRES   REMARKS
ALAMOSA        FAIR      20   8  60 SE6       30.15R WCI  12
DEL NORTE      FAIR      34   6  30 CALM      30.15S
LA VETA PASS   LGT SNOW   3   0  85 N16G30      N/A  WCI -16
SAGUACHE       FAIR      34  14  44 N7        30.18R WCI  28
$$

COZ035-036-038>040-160200-
...NORTHERN COLORADO FRONT RANGE...

CITY           SKY/WX    TMP DP  RH WIND       PRES   REMARKS
DENVER INTL AP FAIR       9  -2  61 E8        30.48R WCI  -3
DMNS CITY PARK NOT AVBL
AURORA         MOCLDY    10   2  70 E3        30.47R
FRONT RANGE AP MOCLDY    10   1  67 NE7       30.48R WCI   0
ERIE MUNI ARPT MOCLDY    16   8  71 E6        30.55R WCI   7
BOULDER MUN AP CLOUDY    19  14  79 S3        30.48R
CENTENNIAL     MOCLDY    15   2  56 E7        30.45R WCI   5
BROOMFIELD     CLOUDY    18   9  68 SE5       30.46S WCI  11
FORT COLLINS   FAIR       9   4  80 S10       30.50R WCI  -5
LONGMONT       CLOUDY    22  13  69 S5        30.52R WCI  15
$$

COZ041-046-047-076>085-087-088-160200-
...PIKES PEAK/PALMER DIVIDE AND SOUTHERN FOOTHILLS...

CITY           SKY/WX    TMP DP  RH WIND       PRES   REMARKS
COLO. SPRINGS  CLOUDY    19   8  62 N5        30.43R WCI  12
A. F. ACADEMY  CLOUDY    14   6  69 N6        30.40R WCI   5
SCHRIEVER AFB  MOCLDY    12   5  73 NE9       30.44R WCI   0
CHEYENNE MTN   FLURRIES  14  13  95 CALM      30.33S
ELLICOTT         N/A    N/A N/A N/A N12         N/A
FALCON         CLOUDY    11   4  75 N6        30.40R WCI   1
FORT CARSON    CLOUDY    17  12  80 S10       30.44R WCI   5
LIMON          FAIR       7  -2  66 N12       30.48R WCI  -8
MONUMENT HILL  CLOUDY     5   1  85 NW5       30.40R WCI  -4
CANON CITY     LGT SNOW  21  19  93 E3        30.48R
WALSENBURG     CLOUDY    18  14  86 CALM      30.47R
TRINIDAD       LGT SNOW  15  11  83 N5        30.47R FOG     WCI   8
$$

COZ042>045-048>051-090-091-160200-
...NORTHEAST COLORADO...

CITY           SKY/WX    TMP DP  RH WIND       PRES   REMARKS
GREELEY ARPT   FAIR      10   0  63 NE7       30.53R WCI  -1
AKRON          FAIR       4  -2  76 N3        30.51R
BURLINGTON     FAIR       8  -1  66 N8        30.54R WCI  -4
WRAY           FAIR       7   0  72 N6        30.61R WCI  -3
YUMA           FAIR       3  -4  72 N6        30.56R WCI  -8
STERLING       FAIR      10   1  67 NE7       30.56R WCI   0
HOLYOKE        FAIR       7  -2  66 N15       30.60R WCI -11
FORT MORGAN    FAIR      10  -6  49 W3        30.55R
$$

COZ086-089-092>099-160200-
...SOUTHEAST COLORADO...

CITY           SKY/WX    TMP DP  RH WIND       PRES   REMARKS
PUEBLO         CLOUDY    21  16  81 S5        30.51R WCI  15
LA JUNTA       CLOUDY    25   0  33 N10       30.54R WCI  15
LAMAR          CLOUDY    21   0  39 NE14      30.54R WCI   8
SPRINGFIELD      N/A     20  -1  40 N16       30.49R WCI   6
$$




USA.gov is the U.S. government's official web portal to all federal, state and local government web resources and services.